This is the latest recevied weather packets stored in our database for station/object DH5DY-6. If no packets are shown the sender has not sent any weather packets the latest 10 day(s).
| Time | Temp. | Humidity | Pressure | Rain* | Wind** | Luminosity | Snow |
|---|---|---|---|---|---|---|---|
| 1788081056 | 18.89° C | 72% | 1010.9 hPa | 0 mm | - | 246 W/m² | - |
| 1788080456 | 18.89° C | 72% | 1010.8 hPa | 0 mm | - | 163 W/m² | - |
| 1788079255 | 19.44° C | 72% | 1010.6 hPa | 0 mm | - | 250 W/m² | - |
| 1788078655 | 18.33° C | 74% | 1010.6 hPa | 0 mm | - | 323 W/m² | - |
| 1788077455 | 18.33° C | 77% | 1010.5 hPa | 0 mm | - | 74 W/m² | - |
| 1788076855 | 17.78° C | 78% | 1010.5 hPa | 0 mm | - | 63 W/m² | - |
| 1788075654 | 17.78° C | 79% | 1010.4 hPa | 0 mm | - | 104 W/m² | - |
| 1788075055 | 17.78° C | 80% | 1010.3 hPa | 0 mm | - | 72 W/m² | - |
| 1788073855 | 17.78° C | 81% | 1010.2 hPa | 0 mm | - | 62 W/m² | - |
| 1788073255 | 17.22° C | 82% | 1010.1 hPa | 0 mm | - | 62 W/m² | - |
| 1788072055 | 17.22° C | 83% | 1009.9 hPa | 0 mm | - | 63 W/m² | - |
| 1788070254 | 16.67° C | 88% | 1009.6 hPa | 0 mm | - | 58 W/m² | - |
| 1788069654 | 16.67° C | 89% | 1009.7 hPa | 0 mm | - | 79 W/m² | - |
| 1788068455 | 16.67° C | 89% | 1009.5 hPa | 0 mm | - | 40 W/m² | - |
| 1788067855 | 16.67° C | 88% | 1009.4 hPa | 0 mm | - | 28 W/m² | - |
| 1788066655 | 16.67° C | 89% | 1009.4 hPa | 0.25 mm | - | 18 W/m² | - |
| 1788066055 | 16.67° C | 89% | 1009.3 hPa | 0.25 mm | - | 18 W/m² | - |
| 1788065454 | 16.67° C | 89% | 1009.1 hPa | 0.25 mm | - | 7 W/m² | - |
| 1788064255 | 17.22° C | 89% | 1008.9 hPa | 0.25 mm | - | 0 W/m² | - |
| 1788063654 | 17.22° C | 88% | 1008.9 hPa | 0.25 mm | - | 0 W/m² | - |
| 1788063054 | 17.22° C | 88% | 1008.7 hPa | 0 mm | - | 0 W/m² | - |
| 1788062457 | 17.22° C | 87% | 1008.7 hPa | 0 mm | - | 0 W/m² | - |
| 1788061254 | 17.78° C | 87% | 1008.8 hPa | 0 mm | - | 0 W/m² | - |
| 1788060654 | 17.78° C | 87% | 1008.7 hPa | 0 mm | - | 0 W/m² | - |
| 1788059453 | 17.78° C | 86% | 1008.7 hPa | 0 mm | - | 0 W/m² | - |
* Rain latest hour (hover to see other rain measurements)
** Current wind speed in m/s (hover to see current wind gust speed)